This demonstration page uses our WeatherBlox Daily Observations layout. Learn more.

Left ArrowRight Arrow

Hourly Observations for April 22, 2015

Temp ( °F °C ) Dew Point ( °F °C ) Humidity (%) Winds ( mph kmh ) Pressure ( in mb ) Visibility ( mi km ) Precip ( " mm )
12:53 am 00:53 Clear 37 2.8 27 -2.8 67 67 N 7 11 30.00 1016 10 16 0.00 0.00
1:53 am 01:53 Clear 35 1.7 27 -2.8 72 72 Calm 30.01 1016 10 16 0.00 0.00
2:53 am 02:53 Clear 35 1.7 24 -4.4 64 64 NE 3 6 30.02 1017 10 16 0.00 0.00
3:53 am 03:53 Clear 33 0.6 24 -4.4 70 70 Calm 30.03 1017 10 16 0.00 0.00
4:53 am 04:53 Clear 31 -0.6 23 -5 72 72 NNE 7 11 30.04 1017 10 16 0.00 0.00
5:53 am 05:53 Clear 30 -1.1 23 -5 75 75 NE 3 6 30.05 1018 10 16 0.00 0.00
6:53 am 06:53 Sunny 30 -1.1 23 -5 75 75 ENE 3 6 30.07 1018 10 16 0.00 0.00
7:53 am 07:53 Sunny 34 1.1 24 -4.4 67 67 Calm 30.09 1019 10 16 0.00 0.00
8:53 am 08:53 Sunny 39 3.9 25 -3.9 57 57 NE 9 15 30.09 1019 10 16 0.00 0.00
9:53 am 09:53 Sunny 42 5.6 23 -5 47 47 E 9 15 30.10 1019 10 16 0.00 0.00
10:53 am 10:53 Sunny 45 7.2 24 -4.4 44 44 E 8 13 30.13 1020 10 16 0.00 0.00
11:53 am 11:53 Sunny 47 8.3 24 -4.4 41 41 SSE 5 7 30.13 1020 10 16 0.00 0.00
12:53 pm 12:53 Sunny 49 9.4 25 -3.9 39 39 VRB 3 6 30.11 1020 10 16 0.00 0.00
1:53 pm 13:53 Sunny 51 10.6 25 -3.9 36 36 VRB 3 6 30.09 1019 10 16 0.00 0.00
2:53 pm 14:53 Sunny 53 11.7 25 -3.9 34 34 Calm 30.06 1018 10 16 0.00 0.00
3:53 pm 15:53 Sunny 54 12.2 25 -3.9 33 33 ESE 6 9 30.04 1017 10 16 0.00 0.00
4:53 pm 16:53 Sunny 56 13.3 26 -3.3 32 32 E 7 11 30.02 1017 10 16 0.00 0.00
5:53 pm 17:53 Sunny 56 13.3 26 -3.3 32 32 S 6 9 30.02 1017 10 16 0.00 0.00
6:53 pm 18:53 Sunny 55 12.8 26 -3.3 33 33 SE 6 9 30.01 1016 10 16 0.00 0.00
7:53 pm 19:53 Sunny 53 11.7 27 -2.8 37 37 SSE 7 11 30.01 1016 10 16 0.00 0.00
8:53 pm 20:53 Clear 50 10 26 -3.3 39 39 SE 6 9 30.01 1016 10 16 0.00 0.00
9:53 pm 21:53 Clear 48 8.9 27 -2.8 44 44 SE 6 9 30.02 1017 10 16 0.00 0.00
10:53 pm 22:53 Clear 48 8.9 26 -3.3 42 42 SSE 8 13 30.02 1017 10 16 0.00 0.00
11:53 pm 23:53 Clear 45 7.2 27 -2.8 49 49 S 7 11 30.02 1017 10 16 0.00 0.00

Powered by AerisWeather